User: anonymous   Login
Location: Unspecified
(0.0000°N, 0.0000°E)
Time: 22:24:54
(UTC+00:00)
Language:

NOAA 6 - Orbit

View from above orbital plane
View from above orbital plane
View from above satellite
View from above satellite

Ground track
Ground track

The orbit data is extracted from the following two-line orbital elements,

1 11416U 79057A   17327.54384458  .00000069  00000-0  41000-4 0  9996
2 11416  98.5938 314.1624 0011100 133.3207 226.8904 14.33450448  2908
Epoch (UTC): 23 November 2017 13:03:08
Eccentricity: 0.0011100
inclination: 98.5938°
perigee height: 772 km
apogee height: 788 km
right ascension of ascending node: 314.1624°
argument of perigee: 133.3207°
revolutions per day: 14.33450448
mean anomaly at epoch: 226.8904°
orbit number at epoch: 290

The dashed part of the orbit path shows where the satellite is in the earth's shadow,  

DLR